Location: Cheching
(60.0667°N, 164.2167°W)
Time: 08:14:12
(UTC+00:00)

XW-2D - Pass Details

Date: 20 January 2021
Orbit: 505 x 525 km, 97.5° (Epoch: 09 March)

Event Time Altitude Azimuth Distance (km) Brightness Sun altitude
Rises 04:29:59 0° 190° (S) 2,619 ? -12.7°
Reaches altitude 10° 04:32:14 10° 201° (SSW) 1,741 ? -13.0°
Maximum altitude 04:35:37 31° 265° (W) 927 ? -13.4°
Drops below altitude 10° 04:39:03 10° 329° (NNW) 1,765 ? -13.8°
Sets 04:41:20 0° 340° (NNW) 2,662 ? -14.1°
